Starlink 35089

operational
NORAD ID: 65484 Int'l Des: 2025-195 Owner: SPXS Country: US Constellation: starlink
LEOCIRCULAR

关于 Starlink 35089

正在加载描述...

实时位置

正在加载3D地球...

即将过境

高度历史

Altitude vs Time

uPlot chart will show altitude changes over time

两行轨道根数

1 65484U 25195AC 25294.58336806 .00091669 00000-0 30733-2 0 9999
2 65484 53.1585 184.6056 0001758 87.7493 193.0772 15.30156706 5935
Epoch: Oct 21, 2025 • Age: 7 hours

当前状态

高度 477.6 km
速度 7.63 km/s
星下点 -7.60°S, 16.69°E
发射日期 Sep 3, 2025
运行时间 0.1 years
类型 internet

技术详情

分类 Payload
质量 575.00 kg
干质量 530.00 kg
总质量 575.00 kg
长度 0.30 m
直径 4.10 m
跨度 29.00 m
形状 Box + pan
制造商 SPXS
平台类型 Starlink V2MO
阶段状态 In Orbit
所有者/国家 SPXS/US

大型星座

Loading constellations...